Location: Newark
(48.5667°N, 7.8167°E)
Time: 04:47:27
(UTC+00:00)

JY1SAT - Pass Details

Date: 30 July 2021
Orbit: 568 x 591 km, 97.7° (Epoch: 19 September)

Event Time Altitude Azimuth Distance (km) Brightness Sun altitude
Exits shadow 21:17:43 25° 184° (S) 1,201 ? -16.5°
Maximum altitude 21:20:02 64° 259° (WSW) 658 ? -16.7°
Drops below altitude 10° 21:24:12 10° 341° (NNW) 1,931 ? -17.1°
Sets 21:26:24 0° 345° (NNW) 2,838 ? -17.2°
